Location: Bothwell
(42.3833°S, 147.0000°E)
Time: 09:32:19
(UTC+11:00)

Envisat - Pass Details

Date: 10 December 2022
Orbit: 763 x 765 km, 98.2° (Epoch: 28 January)

Event Time Altitude Azimuth Distance (km) Brightness Sun altitude
Rises 04:41:42 0° 8° (N) 3,222 5.9 -7.8°
Reaches altitude 10° 04:44:00 10° 5° (N) 2,304 5.1 -7.4°
Maximum altitude 04:49:04 68° 282° (WNW) 834 3.0 -6.7°
Drops below altitude 10° 04:54:12 10° 198° (SSW) 2,335 5.8 -6.0°
Sets 04:56:33 0° 195° (SSW) 3,269 6.6 -5.7°
